Regional Weather Roundup
Issued by NWS

Home | Current Version | Previous Version | Graphics & Text | Print | Product List | Glossary On
Versions: 1 2 3 4 5 6 7 8 9 10 11 12 13 14 15 16 17 18 19 20 21 22 23 24 25 26 27 28 29 30 31 32 33 34 35 36 37 38 39 40 41 42 43 44 45 46 47 48 49 50
000
ASUS43 KLOT 010708
RWRIL

ILLINOIS REGIONAL WEATHER ROUNDUP
NATIONAL WEATHER SERVICE CHICAGO/ROMEOVILLE IL
200 AM CDT SAT OCT 01 2016

NOTE: "FAIR" INDICATES FEW OR NO CLOUDS BELOW 12,000 FEET WITH NO
SIGNIFICANT WEATHER AND/OR OBSTRUCTIONS TO VISIBILITY.

* THESE STATIONS ARE NOT UNDER NWS QUALITY CONTROL. THEY ALSO MAY NOT
  REPORT WEATHER SUCH AS PRECIPITATION OR FOG.

ILZ001-002-007-009-015-016-024-010800-
NORTHWEST ILLINOIS

CITY           SKY/WX    TMP DP  RH WIND       PRES   REMARKS
MOLINE         CLOUDY    62  57  83 N6        30.07S
STERLING*      LGT RAIN  60  59  96 N6        30.07S
SAVANNA*       DRIZZLE   60  58  94 N7        30.07F
$$

ILZ003-004-008-010-011-017-018-010800-
NORTH CENTRAL ILLINOIS

CITY           SKY/WX    TMP DP  RH WIND       PRES   REMARKS
ROCKFORD       DRIZZLE   61  59  93 N7        30.08F
FREEPORT*      CLOUDY    58  57  97 N3        30.09F FOG
ROCHELLE*      DRIZZLE   59  59  98 NE5       30.06F
DE KALB*       CLOUDY    60  59  98 NE3       30.06S FOG
$$

ILZ005-006-012>014-019>023-010800-
NORTHEAST ILLINOIS

CITY           SKY/WX    TMP DP  RH WIND       PRES   REMARKS
CHICAGO-OHARE  CLOUDY    62  57  83 E6        30.04S
CHICAGO-MIDWAY CLOUDY    62  57  83 E8        30.04S
AURORA         CLOUDY    61  59  93 N6        30.05S
LANSING*       CLEAR     57  57 100 NE3       30.04S
JOLIET*        CLOUDY    63  60  90 E7        30.04S
WAUKEGAN       CLOUDY    61  58  90 E6        30.05S
DUPAGE AIRPORT CLOUDY    61  58  90 NE3       30.04S
KANKAKEE*      MOCLDY    58  58  97 CALM      30.03F
WHEELING       CLOUDY    61  57  87 CALM      30.06S
MORRIS*        CLOUDY    61  58  91 CALM      30.03S
ROMEOVILLE*    CLOUDY    60  60  98 E6        30.04S
NORTHERLY ISL    N/A     60  56  86 E6          N/A
$$

LMZ740>746-010800-
SOUTHERN LAKE MICHIGAN

STATION/POSITION SKY/WX   TEMP    WIND        PRES    VSBY  WAVE
                          AIR SEA DIR/SP/G                  HT/PER
                          (F)     (DEG/KT/KT) (MB)    (MI)  (FT/S)
SOUTHERN BUOY              63 67  100/ 16/ 19 1017.5R         4/ 6
WILMETTE HARBOR            60 59  120/  6/  8   N/A           4/ 6
HARRISON CRIB              63     100/ 14/ 14   N/A
BURNHAM HARBOR             60      90/  6/ 10   N/A
CALUMET HARBOR             61      70/  7/  9 1016.9R
BURNS HARBOR               59      90/  4/  8 1017.6S
MICHIGAN CITY              58      40/  6/  7   N/A
MICHIGAN CITY 6N           60 64   80/  6/ 10   N/A           4/ 7
ST. JOSEPH                 55 52   30/  6/  8 1017.5          2/ 6
$$

ILZ025>027-034>036-040-047-049-050-058-095>099-010800-
WEST-CENTRAL ILLINOIS

CITY           SKY/WX    TMP DP  RH WIND       PRES   REMARKS
QUINCY         CLOUDY    61  59  93 N8        30.06S
GALESBURG*     DRIZZLE   60  58  94 N6        30.06S
MACOMB*        CLOUDY    60  59  96 N5        30.08S
JACKSONVILLE*  CLOUDY    61  60  96 NW6       30.03F
PITTSFIELD*    RAIN      61  60  95 N5        30.06S
$$

ILZ028>032-037-038-041>044-048-051>054-059>061-010800-
CENTRAL ILLINOIS

CITY           SKY/WX    TMP DP  RH WIND       PRES   REMARKS
PONTIAC        CLOUDY    61  61 100 NE6       30.03S
BLOOMINGTON    CLOUDY    60  59  96 N7        30.03S
DECATUR        CLOUDY    62  59  90 N7        30.00S
PEORIA         CLOUDY    61  61 100 N6        30.03S
LACON*         DRIZZLE   60  59  95 N3        30.04R
LINCOLN*       CLOUDY    62  61  99 N3        30.02R FOG
SPRINGFIELD    CLOUDY    62  60  93 N9        30.02S
TAYLORVILLE    HVY RAIN  60  60  99 N8        30.01S
$$

ILZ033-039-045-046-055>057-062-063-010800-
EAST-CENTRAL ILLINOIS

CITY           SKY/WX    TMP DP  RH WIND       PRES   REMARKS
CHAMPAIGN      LGT RAIN  61  59  93 NE3       30.00S
RANTOUL*       CLOUDY    61  60  97 NE7       30.00S FOG
MATTOON        CLOUDY    59  57  93 NW3       29.98S
PARIS*         CLOUDY    58  58 100 CALM      30.00S
$$

ILZ079-100>102-010800-
SOUTHWEST ILLINOIS

CITY           SKY/WX    TMP DP  RH WIND       PRES   REMARKS
ALTON          CLOUDY    60  59  96 NW6       30.02F
BELLEVILLE     CLOUDY    62  62 100 NW8       30.00F
CAHOKIA*       CLOUDY    63  59  87 NW7       30.02F
SPARTA*        CLOUDY    61  60  97 W5        30.03S
$$

ILZ064>066-069>071-074>076-080>082-084>086-088>090-092>094-010800-
SOUTH-CENTRAL ILLINOIS

CITY           SKY/WX    TMP DP  RH WIND       PRES   REMARKS
CARBONDALE     CLOUDY    61  61 100 NW6       30.01F
CAIRO*         CLOUDY    61  60  96 W3        30.02F
EFFINGHAM*     CLOUDY    60  60 100 CALM      30.00S
MARION         CLOUDY    63  63 100 CALM      30.02S
MT. VERNON     CLOUDY    63  55  77 CALM      30.00S
CENTRALIA*     RAIN      63  63 100 W9        29.99S
SALEM*         DRIZZLE   63  61  94 CALM      29.99S
METROPOLIS*    PTCLDY    60  59  97 W5        30.02S
$$

ILZ067-068-072-073-078-083-087-091-010800-
SOUTHEAST ILLINOIS

CITY           SKY/WX    TMP DP  RH WIND       PRES   REMARKS
LAWRENCEVILLE  CLOUDY    57  54  89 CALM      30.00R
FLORA*         LGT RAIN  62  61  97 CALM      29.99S
FAIRFIELD*     CLOUDY    60  60 100 CALM      29.99S
HARRISBURG*    CLOUDY    59  59 100 W3        30.01R
ROBINSON*      CLOUDY    56  56 100 CALM      30.01R
CARMI*         CLOUDY    57  57 100 CALM      29.98F
$$

ABBREVIATIONS USED IN REMARKS
   TC - TEMPERATURE IN CELSIUS
  WCI - WIND CHILL INDEX
   HX - HEAT INDEX
  VSB - VISIBILITY
$$





USA.gov is the U.S. government's official web portal to all federal, state and local government web resources and services.